STARLINK-36167 (67011 NORAD) Tracking and Keplerian Element Data

This shows tracking and keplerian element data for the satellite.

Feedback or suggestion? Click here.




ElementValue
Catalog67011
NameSTARLINK-36167
Epoch Orbit132
Epoch Day354.25003472
Epoch Year2025
RAAN301.9702
Inclination69.9939
Eccentricity0.0003847
Argument of Perigee270.6668
Mean Anonmoly311.209
Mean Motion15.92281564
Decay Rate-0.01103762
L11 67011U 25293J 25354.25003472 -.01103762 36370-3 -32796-2 0 9991
L22 67011 69.9939 301.9702 0003847 270.6668 311.2090 15.92281564 1326



Live tracking and technical data element details for STARLINK-36167 (NORAD 67011). STARLINK-36167 can be tracked NOW for your location showing map with azimuth and elevation plus other details from your city location.







IsCatalogInMostPopularTable: catalog: 67011, numindb: 40
Update: records affected: 1



GetName: 67011 STARLINK-36167

Hit Count: updated at: Tue, 17 Feb 2026 12:27:18 GMT